{"data":{"norad_id":68883,"epoch":"2026-05-24T22:41:41.409024Z","epoch_age_seconds":79082,"freshness":"FRESH","line1":"1 68883U 26095V   26144.94561816  .00021698  00000+0  58574-3 0  9999","line2":"2 68883  51.8806 354.7677 0005821 202.0241 158.0497 15.37691421  4152","mean_motion":15.37691421,"eccentricity":0.0005821,"inclination_deg":51.8806,"raan_deg":354.7677,"arg_perigee_deg":202.0241,"mean_anomaly_deg":158.0497,"bstar":0.00058574,"rev_number":415,"period_min":93.646877412084,"perigee_km":448.96152883906,"apogee_km":456.91426623477,"semimajor_km":6831.0748975369,"source":"CELESTRAK","updated_at":"2026-05-25T13:38:08.649586Z"}}